Home > Weather > Moers > Past weeks

Flag for Germany Weather for the Past 2 Weeks in Moers, North Rhine-Westphalia, Germany

Now
39 °F

Sprinkles. Partly cloudy.


Feels Like: 32 °F
Forecast: 38 / 45 °F
Wind: 10 mph from West

Location: Duesseldorf

Current Time: Feb 10, 2016 at 7:54:24 PM

Latest Report: Feb 10, 2016 at 7:20 PM


Visibility: N/A

Pressure: 29.45 "Hg

Humidity: 93%

Dew point: 37 °F

Location of MoersLocation

Historic Weather in Moers — Graph

°F

Moers Temperature Yesterday

Maximum temperature yesterday: 50 °F (at 4:20 PM)
Minimum temperature yesterday: 36 °F (at 7:50 PM)
Average temperature yesterday: 43 °F

High & Low Weather Summary for the Past Weeks

 TemperatureHumidityPressure
High54 °F (Jan 27, 12:50 PM)100% (Jan 28, 4:20 AM)30.33 "Hg (Jan 28, 4:20 AM)
Low36 °F (Jan 28, 10:50 PM)57% (Jan 28, 2:50 PM)28.77 "Hg (Feb 9, 4:20 PM)
Average46 °F82%29.86 "Hg
* Reported Jan 26 6:20 PM — Feb 10 6:50 PM, Moers, Weather by CustomWeather, © 2016

Note: Actual official high and low records may vary slightly from our data, if they occured in-between our weather recording intervals... More about our weather records

Advertising

Moers Weather History for the Previous 24 Hours

 ConditionsComfort  
Time TempWeatherWind HumidityBarometerVisibility
6:50 PM
Wed, Feb 10
41 °FSprinkles. Partly cloudy.13 mph93%29.45 "HgN/A
6:20 PM41 °FSprinkles. Passing clouds.16 mph87%29.45 "Hg6 mi
5:50 PM43 °FSprinkles. Passing clouds.20 mph87%29.42 "HgN/A
5:20 PM43 °FSprinkles. Broken clouds.13 mph87%29.39 "HgN/A
4:50 PM43 °FScattered clouds.12 mph81%29.39 "HgN/A
4:20 PM43 °FPartly sunny.12 mph87%29.36 "HgN/A
3:50 PM43 °FBroken clouds.13 mph87%29.36 "HgN/A
3:20 PM43 °FSprinkles. Broken clouds.13 mph81%29.36 "HgN/A
2:50 PM43 °FSprinkles. Broken clouds.16 mph81%29.33 "HgN/A
2:20 PM45 °FScattered clouds.14 mph81%29.33 "HgN/A
1:50 PM43 °FSprinkles. Broken clouds.14 mph81%29.33 "HgN/A
1:20 PM41 °FPartly sunny.14 mph87%29.33 "HgN/A
12:50 PM41 °FPartly sunny.14 mph87%29.33 "HgN/A
12:20 PM39 °FPartly sunny.14 mph93%29.33 "HgN/A
11:50 AM39 °FPartly sunny.15 mph93%29.33 "HgN/A
11:20 AM39 °FPartly sunny.16 mph87%29.33 "HgN/A
10:50 AM39 °FLight rain. Partly sunny.16 mph87%29.30 "HgN/A
10:20 AM39 °FLight rain. Partly sunny.16 mph87%29.30 "HgN/A
9:50 AM39 °FLight rain. Partly sunny.14 mph87%29.30 "HgN/A
9:20 AM39 °FLight rain. Partly sunny.15 mph87%29.27 "HgN/A
8:50 AM37 °FLight rain. Overcast.16 mph93%29.27 "HgN/A
8:20 AM37 °FLight rain. More clouds than sun.17 mph93%29.27 "HgN/A
7:50 AM37 °FLight rain. Mostly cloudy.18 mph93%29.27 "HgN/A
7:20 AM39 °FLight rain. Mostly cloudy.17 mph87%29.24 "HgN/A
6:50 AM37 °FLight rain. Mostly cloudy.16 mph93%29.24 "HgN/A
6:20 AM37 °FLight rain. Partly cloudy.16 mph93%29.24 "HgN/A
5:50 AM39 °FLight rain. Partly cloudy.20 mph87%29.24 "HgN/A
5:20 AM39 °FSprinkles. Partly cloudy.18 mph87%29.24 "HgN/A
4:50 AM39 °FPartly cloudy.17 mph87%29.24 "HgN/A
4:20 AM39 °FPassing clouds.14 mph87%29.24 "HgN/A
3:50 AM37 °FPartly cloudy.12 mph93%29.27 "HgN/A
3:20 AM39 °FRain showers. Partly cloudy.15 mph87%29.27 "HgN/A
2:50 AM39 °FPassing clouds.10 mph87%29.27 "HgN/A
2:20 AM37 °FPassing clouds.12 mph87%29.27 "HgN/A
1:50 AM37 °FPassing clouds.12 mph87%29.27 "HgN/A
1:20 AM37 °FPassing clouds.14 mph87%29.27 "HgN/A
12:20 AM39 °FPassing clouds.14 mph87%29.24 "HgN/A
11:50 PM
Tue, Feb 9
39 °FPassing clouds.13 mph87%29.24 "HgN/A
11:20 PM39 °FPartly cloudy.13 mph93%29.21 "HgN/A
10:20 PM39 °FPassing clouds.14 mph93%29.18 "HgN/A
9:50 PM39 °FPassing clouds.16 mph93%29.18 "HgN/A
9:20 PM39 °FPartly cloudy.18 mph93%29.15 "HgN/A
8:50 PM37 °FLight rain. Passing clouds.17 mph100%29.12 "HgN/A
8:20 PM36 °FLight rain. Passing clouds.16 mph100%29.12 "Hg4 mi
7:50 PM36 °FLight rain. Passing clouds.20 mph93%29.09 "Hg5 mi
7:20 PM37 °FPassing clouds.20 mph93%29.03 "Hg5 mi
Weather by CustomWeather, © 2016

See weather overviewHow to use our weather pages